This is the latest recevied weather packets stored in our database for station/object KB9HUO. If no packets are shown the sender has not sent any weather packets the latest 1 day(s).
| Time | Temp. | Humidity | Pressure | Rain* | Wind** | Luminosity | Snow |
|---|---|---|---|---|---|---|---|
| 1777987771 | 15.56° C | 88% | 1009.2 hPa | 0 mm | 1.34 m/s, 208° | 92 W/m² | - |
| 1777987468 | 15.56° C | 88% | 1009.3 hPa | 0 mm | 1.34 m/s, 197° | 74 W/m² | - |
| 1777987166 | 15° C | 89% | 1009.2 hPa | 0 mm | 1.79 m/s, 184° | 58 W/m² | - |
| 1777986862 | 15° C | 89% | 1009.2 hPa | 0 mm | 0.89 m/s, 208° | 51 W/m² | - |
| 1777986560 | 15° C | 89% | 1009.5 hPa | 0 mm | 1.34 m/s, 189° | 68 W/m² | - |
| 1777986258 | 15° C | 90% | 1009.6 hPa | 0 mm | 1.79 m/s, 208° | 52 W/m² | - |
| 1777985955 | 15° C | 90% | 1009.3 hPa | 0 mm | 0.89 m/s, 195° | 50 W/m² | - |
| 1777985653 | 15° C | 91% | 1009.3 hPa | 0 mm | 1.79 m/s, 190° | 53 W/m² | - |
| 1777985349 | 14.44° C | 91% | 1009.1 hPa | 0 mm | 1.79 m/s, 219° | 51 W/m² | - |
| 1777985046 | 14.44° C | 92% | 1009.5 hPa | 0 mm | 1.34 m/s, 208° | 53 W/m² | - |
| 1777984742 | 14.44° C | 92% | 1009.1 hPa | 0 mm | 2.24 m/s, 222° | 59 W/m² | - |
| 1777984439 | 14.44° C | 92% | 1009.2 hPa | 0 mm | 2.24 m/s, 190° | 54 W/m² | - |
| 1777984134 | 14.44° C | 92% | 1009.1 hPa | 0 mm | 2.24 m/s, 195° | 47 W/m² | - |
| 1777983832 | 14.44° C | 93% | 1009.2 hPa | 0 mm | 1.79 m/s, 217° | 34 W/m² | - |
| 1777983529 | 14.44° C | 93% | 1009.3 hPa | 0 mm | 1.79 m/s, 206° | 31 W/m² | - |
| 1777983226 | 14.44° C | 92% | 1009.5 hPa | 0 mm | 0.89 m/s, 228° | 26 W/m² | - |
| 1777982922 | 14.44° C | 92% | 1009.3 hPa | 0 mm | 1.79 m/s, 208° | 29 W/m² | - |
| 1777982618 | 13.89° C | 93% | 1009.1 hPa | 0 mm | 1.79 m/s, 199° | 36 W/m² | - |
| 1777982317 | 13.89° C | 93% | 1009.1 hPa | 0 mm | 0 m/s | 33 W/m² | - |
| 1777982014 | 13.89° C | 94% | 1009 hPa | 0 mm | 0.89 m/s, 228° | 21 W/m² | - |
| 1777981712 | 13.89° C | 95% | 1009.5 hPa | 0 mm | 0.45 m/s, 231° | 18 W/m² | - |
| 1777981408 | 13.89° C | 95% | 1009.2 hPa | 0 mm | 0.89 m/s, 218° | 13 W/m² | - |
| 1777981105 | 13.89° C | 96% | 1009 hPa | 0 mm | 0.45 m/s, 226° | 17 W/m² | - |
| 1777980801 | 13.89° C | 96% | 1009 hPa | 0 mm | 1.34 m/s, 203° | 11 W/m² | - |
| 1777980497 | 13.89° C | 96% | 1009.2 hPa | 0 mm | 1.34 m/s, 188° | 9 W/m² | - |
* Rain latest hour (hover to see other rain measurements)
** Current wind speed in m/s (hover to see current wind gust speed)